Wetbulb
52.38 53.08 53.90 54.47 54.26 54.32 54.63 58.67 57.89 57.70 58.26 58.94 64.13 65.21 64.67 64.87 65.64 65.71 64.96 61.00 58.14 55.31 51.22 48.87 48.03 47.43 45.70 44.43 43.40 42.69 41.69 39.46 39.68 39.68 40.22 40.94 40.49 40.80 41.07 41.41 40.95 40.48 40.89
49.75 51.74 52.22 53.18 54.08 54.18 54.56 55.20 57.11 58.56 59.28 59.93 61.39 63.81 62.90 61.74 60.46 61.67 60.85 57.35 53.38 50.85 48.47 47.02 46.48 46.38 46.13 44.94 42.41 42.16 40.58 39.40 38.83 36.38 36.94 36.06 37.88 39.23 40.45 40.57 39.80 38.11 38.78
48.16 49.74 50.38 51.41 53.19 54.44 55.03 55.28 56.49 57.05 59.50 59.99 62.47 60.13 55.66 54.41 53.08 55.11 53.82 52.58 51.38 50.32 48.03 47.13 46.65 46.15 45.45 43.94 42.63 41.35 40.78 38.50 38.01 37.29 35.42 33.36 32.87 33.30 37.57 38.35 37.82 37.33 36.89
47.92 48.91 49.51 49.07 50.27 53.01 55.61 55.46 56.45 56.81 58.38 60.74 62.20 60.37 59.68 56.03 51.72 50.47 51.19 50.15 51.11 49.22 48.42 48.24 48.05 46.05 44.53 42.11 41.14 41.94 39.48 38.80 36.92 37.42 39.17 35.69 34.23 31.02 29.93 35.32 35.81 36.86 36.22
45.88 46.33 47.18 48.70 49.58 49.89 52.49 56.13 56.15 56.43 58.27 61.63 62.64 60.15 56.23 52.35 50.34 48.74 47.45 47.33 48.13 47.33 47.20 46.82 46.52 45.70 44.72 41.39 40.11 39.13 38.19 37.49 36.52 35.93 35.19 34.15 34.26 33.73 30.88 28.60 31.14 33.96 35.17
44.29 46.24 47.82 48.41 48.38 49.11 49.93 53.53 55.64 56.18 58.91 61.22 61.57 57.67 54.47 49.86 47.88 45.68 44.81 44.52 44.86 46.42 46.00 46.68 45.89 44.27 41.86 40.44 39.64 38.30 37.57 36.32 35.95 35.53 34.71 33.78 32.01 30.77 29.68 27.93 28.40 29.08 32.09
43.76 46.18 47.25 48.96 48.28 47.95 49.41 50.54 55.23 55.12 58.91 60.13 59.33 56.60 55.16 49.94 47.03 45.65 44.53 43.79 43.31 44.53 45.13 44.45 42.99 41.44 41.55 40.01 39.26 38.05 36.98 36.36 35.24 34.60 33.96 34.08 33.25 33.24 31.92 29.95 28.42 27.66 29.79
45.06 46.59 48.26 49.20 49.55 48.83 49.42 49.94 54.15 55.24 58.18 59.31 57.40 56.50 51.72 49.30 47.01 46.47 45.24 44.40 44.13 44.32 44.56 43.47 41.78 41.38 39.63 39.06 38.59 37.61 36.82 36.16 35.04 34.14 33.84 33.60 33.49 33.53 32.33 30.82 28.34 26.97 26.77
46.13 46.39 47.99 48.88 49.26 48.59 49.88 50.70 53.78 55.59 57.45 57.89 57.13 55.14 50.75 49.15 46.82 44.67 44.99 44.66 44.07 44.46 43.81 42.58 39.26 39.95 38.21 38.12 37.59 36.27 35.46 34.91 34.60 33.58 33.24 33.01 33.20 32.98 32.43 31.95 30.75 27.28 24.77
45.60 46.02 46.79 48.14 50.55 49.54 49.55 51.28 54.22 55.21 56.05 56.69 55.76 51.81 49.18 46.69 45.53 45.50 43.33 43.38 43.53 42.86 41.43 38.87 38.49 37.07 37.00 36.67 36.33 35.54 35.33 34.14 33.37 33.86 32.37 32.19 32.42 31.78 31.30 30.75 30.61 29.43 26.35
46.16 46.08 46.78 48.20 50.48 49.45 49.35 51.61 54.01 54.71 55.72 55.46 52.48 45.48 43.18 44.25 44.26 42.95 42.77 42.22 41.71 41.44 39.70 39.69 36.90 36.35 36.02 35.50 35.01 34.27 34.12 33.37 32.98 32.87 32.56 32.34 32.18 30.67 30.06 29.80 29.57 28.44 27.38
46.24 46.59 47.05 47.92 48.69 50.23 50.54 52.08 53.97 55.53 52.89 48.24 43.97 40.94 41.11 42.33 41.11 41.60 40.46 41.26 41.26 40.38 38.76 39.14 38.27 37.12 35.34 34.49 33.95 33.67 33.40 33.08 32.44 32.27 31.77 31.45 34.05 29.82 29.62 28.49 27.92 27.50 27.73
44.53 46.02 46.71 46.90 47.52 50.68 52.94 54.13 54.74 53.39 47.37 42.96 40.70 40.16 40.43 40.51 40.41 39.13 40.45 40.44 39.70 39.91 38.74 38.06 36.05 35.92 34.81 34.17 33.54 33.22 33.38 33.36 33.22 32.34 31.32 30.75 30.19 28.56 28.16 27.76 27.07 27.74 30.70
44.30 45.80 45.88 45.89 47.10 51.39 52.08 51.95 48.17 46.36 42.99 40.40 39.22 39.17 39.40 39.87 39.30 39.29 39.70 39.15 39.10 37.86 35.38 36.41 35.71 34.87 34.61 33.93 33.60 34.15 33.73 33.48 33.52 33.35 31.88 30.86 30.03 28.82 27.37 28.31 27.60 29.16 27.12
42.07 45.40 45.06 44.79 46.64 49.45 48.54 45.49 44.49 42.18 40.03 38.73 38.60 38.84 38.68 39.24 38.78 38.49 38.28 37.73 37.41 36.25 35.97 34.55 34.44 34.26 34.16 34.58 33.00 33.71 33.14 32.23 31.34 31.27 31.61 31.27 32.82 35.91 34.57 31.71 27.93 27.77 26.90
43.38 44.83 44.83 44.53 46.93 44.85 42.09 41.04 39.12 38.74 39.09 37.97 37.66 38.17 37.93 37.95 37.32 37.24 36.36 35.79 35.03 34.60 33.76 33.29 33.66 32.57 33.83 34.92 34.80 34.71 32.10 31.20 30.05 29.18 29.58 30.06 33.52 32.51 35.56 35.55 35.50 33.74 29.43
44.04 45.34 45.16 45.79 41.07 40.08 39.78 37.11 36.39 37.30 37.75 37.42 37.20 36.95 36.37 36.06 35.42 35.50 35.33 34.24 33.55 33.69 32.24 31.35 32.17 31.46 31.69 34.24 33.70 34.35 31.57 29.90 28.90 28.46 28.51 29.23 32.14 32.12 29.15 32.47 34.31 33.40 34.55
44.34 45.68 44.42 39.82 37.98 37.69 37.49 37.22 37.14 36.82 35.97 35.32 35.12 35.08 35.01 34.66 35.09 34.93 34.18 33.53 32.46 31.67 31.19 30.84 31.49 31.40 32.67 33.35 32.67 33.59 29.48 28.59 28.34 28.46 28.27 27.46 27.43 28.65 30.84 29.13 25.02 27.34 28.24
46.32 43.75 39.24 36.60 36.09 36.55 36.73 35.76 35.52 35.55 35.27 34.68 34.39 34.96 35.17 34.57 34.43 33.52 32.22 31.16 31.90 31.10 30.90 31.51 30.41 29.94 28.59 32.50 31.99 31.63 28.22 27.23 26.29 28.43 28.21 28.73 27.83 32.82 34.91 29.89 26.44 27.17 27.00
38.22 36.19 35.64 36.22 35.96 35.74 36.42 35.50 35.03 35.64 35.35 35.41 35.35 35.84 35.39 34.19 32.20 31.09 30.37 31.53 31.21 30.87 30.90 29.97 28.73 31.50 26.45 32.42 32.19 31.43 27.92 24.99 25.84 26.85 27.78 32.60 31.55 34.32 34.53 30.20 28.65 25.63 25.11
35.74 36.16 36.16 35.17 35.72 37.13 37.25 35.59 35.29 34.39 35.11 35.36 35.16 34.08 33.19 31.50 31.68 30.58 30.95 31.00 30.26 29.51 27.90 27.11 27.07 27.29 28.11 27.26 32.57 32.75 28.05 26.61 26.67 26.10 25.81 26.79 33.08 33.84 34.17 34.07 27.58 26.38 28.83
38.21 38.04 36.92 37.38 38.65 38.99 37.61 35.71 34.46 35.38 34.86 33.09 32.37 31.75 31.55 32.91 32.22 30.37 29.37 28.50 27.46 26.63 26.02 25.94 25.37 26.08 26.19 31.83 31.52 32.81 32.58 32.10 26.73 25.69 25.79 26.39 32.90 33.17 32.74 31.07 31.18 31.58 31.08
37.58 38.73 38.33 38.04 38.64 37.70 34.18 31.07 31.11 31.23 31.11 31.17 30.94 31.40 31.85 31.14 30.18 27.87 26.91 26.33 26.81 25.19 24.15 23.41 22.99 23.55 25.44 25.00 32.15 32.33 32.36 31.84 28.70 27.76 30.17 32.23 31.95 31.27 28.66 29.37 30.52 29.66 23.29
34.66 34.79 32.97 31.49 30.54 31.45 31.26 30.81 31.50 32.25 31.69 30.70 30.36 28.58 27.95 28.08 28.05 27.91 27.03 25.40 24.54 23.96 23.63 23.17 22.50 22.37 23.01 23.42 24.40 26.40 25.24 29.37 28.13 29.26 26.05 29.14 29.09 28.83 27.53 25.66 24.52 23.42 23.34
34.41 33.15 30.38 28.97 28.48 30.22 30.69 31.65 32.31 32.45 30.65 29.01 27.58 27.53 27.65 26.44 25.16 25.25 25.14 24.48 25.01 25.37 23.05 22.56 22.64 21.07 20.52 23.61 29.25 28.89 26.98 26.50 28.78 29.60 24.25 22.43 21.23 21.15 21.76 22.10 22.35 22.74 22.84
32.06 30.48 29.28 28.82 29.57 30.65 31.26 32.16 32.75 31.81 29.47 27.27 25.85 26.09 24.98 24.78 24.22 23.66 23.74 30.10 29.29 29.14 28.85 28.47 26.27 24.90 28.00 29.71 29.95 30.13 30.78 31.37 31.08 24.70 20.23 19.18 20.08 20.11 20.47 20.52 20.80 21.60 22.49
MSLP
1004.17 1003.97 1003.95 1003.86 1003.94 1003.99 1004.29 1004.42 1004.87 1005.46 1006.06 1006.90 1007.29 1007.79 1008.52 1009.34 1009.81 1010.34 1010.87 1011.73 1012.51 1013.53 1014.57 1015.07 1015.43 1015.91 1016.69 1017.22 1017.77 1018.27 1018.72 1019.01 1018.97 1018.94 1018.81 1018.62 1018.57 1018.71 1018.79 1018.77 1018.91 1019.13 1019.18
1003.75 1003.59 1003.44 1003.52 1003.64 1003.77 1003.90 1004.21 1004.36 1004.73 1005.35 1006.18 1006.77 1007.24 1008.47 1009.40 1009.64 1010.60 1011.19 1011.90 1012.76 1013.60 1014.50 1015.04 1015.41 1015.86 1016.45 1017.12 1017.63 1018.38 1018.91 1019.20 1019.24 1019.59 1019.69 1019.55 1019.36 1019.04 1018.78 1018.82 1019.00 1019.18 1019.16
1003.24 1003.33 1003.30 1003.11 1003.21 1003.43 1003.66 1003.84 1003.97 1004.32 1004.78 1005.41 1006.40 1007.82 1008.71 1009.77 1010.50 1011.21 1011.91 1012.51 1013.16 1013.88 1014.59 1015.06 1015.44 1015.94 1016.66 1017.25 1017.70 1018.26 1018.64 1019.21 1019.60 1019.53 1019.87 1020.08 1020.36 1019.91 1019.17 1019.05 1019.14 1019.29 1019.38
1002.82 1003.01 1003.13 1003.01 1002.80 1002.83 1003.12 1003.49 1003.70 1003.84 1004.14 1004.67 1005.73 1007.03 1007.83 1009.37 1010.37 1011.16 1012.08 1012.95 1013.62 1014.12 1014.77 1015.01 1015.47 1016.13 1016.75 1017.34 1018.08 1018.35 1018.50 1018.86 1019.59 1019.75 1019.68 1020.02 1020.37 1020.81 1020.62 1019.85 1019.61 1019.51 1019.58
1002.14 1002.30 1002.48 1002.45 1002.68 1002.70 1002.78 1002.76 1003.28 1003.51 1003.69 1004.12 1005.00 1006.63 1007.78 1009.05 1010.26 1011.35 1012.27 1013.22 1014.01 1014.37 1014.61 1015.05 1015.38 1015.99 1016.67 1017.40 1017.75 1018.79 1018.63 1018.94 1019.37 1019.76 1020.13 1020.28 1020.43 1020.62 1021.10 1020.76 1020.42 1020.06 1019.73
1001.76 1002.06 1002.16 1002.36 1002.39 1002.32 1002.38 1002.75 1002.74 1002.92 1003.44 1003.88 1004.77 1006.14 1007.47 1008.69 1010.32 1011.45 1012.39 1013.24 1014.00 1014.74 1014.75 1015.01 1015.47 1015.86 1016.64 1017.45 1018.22 1018.70 1018.88 1019.08 1019.35 1019.77 1020.07 1020.38 1020.72 1020.99 1021.23 1021.28 1020.82 1020.69 1019.99
1001.76 1002.22 1002.36 1002.52 1002.43 1002.24 1002.41 1002.35 1002.60 1002.73 1003.00 1003.86 1004.80 1006.01 1007.16 1008.24 1009.59 1010.82 1011.92 1012.83 1013.85 1014.64 1014.82 1015.12 1015.78 1016.22 1016.51 1017.59 1018.08 1018.63 1018.95 1019.19 1019.58 1019.86 1020.23 1020.28 1020.55 1020.75 1021.06 1021.33 1021.22 1020.93 1020.20
1001.79 1002.32 1002.68 1002.77 1002.44 1002.03 1001.73 1002.00 1002.27 1002.71 1003.02 1003.67 1004.91 1006.04 1007.23 1008.52 1009.56 1010.49 1011.45 1012.36 1013.24 1014.12 1014.57 1015.14 1015.80 1016.37 1016.88 1017.39 1017.97 1018.48 1018.88 1019.22 1019.57 1019.90 1020.15 1020.36 1020.50 1020.66 1020.92 1021.23 1021.47 1021.11 1020.79
1001.98 1002.60 1002.97 1002.92 1002.43 1001.83 1001.24 1001.36 1001.93 1002.31 1002.94 1003.74 1004.81 1005.95 1007.22 1008.43 1009.44 1010.49 1011.47 1012.31 1013.16 1013.98 1014.46 1015.15 1015.95 1016.64 1017.05 1017.47 1017.97 1018.43 1018.81 1019.10 1019.47 1019.82 1020.09 1020.32 1020.41 1020.54 1020.74 1020.92 1021.19 1021.45 1021.16
1001.94 1002.52 1003.14 1003.17 1002.33 1001.55 1000.88 1000.74 1001.27 1002.08 1002.84 1003.79 1004.91 1006.20 1007.40 1008.41 1009.39 1010.35 1011.34 1012.18 1013.02 1013.87 1014.48 1015.30 1016.16 1016.76 1017.33 1017.78 1018.07 1018.40 1018.75 1019.08 1019.39 1019.64 1019.95 1020.21 1020.38 1020.54 1020.64 1020.79 1020.88 1021.04 1021.11
1002.46 1002.65 1003.04 1003.00 1002.46 1001.47 1000.88 1000.68 1001.17 1002.08 1003.04 1003.97 1005.20 1006.53 1007.70 1008.52 1009.58 1010.41 1011.33 1012.16 1012.77 1013.69 1014.64 1015.42 1016.24 1016.96 1017.55 1017.87 1018.17 1018.50 1018.85 1019.16 1019.40 1019.59 1019.76 1020.04 1020.26 1020.43 1020.52 1020.57 1020.62 1020.75 1020.74
1002.15 1002.45 1002.71 1002.81 1002.60 1001.73 1001.04 1000.80 1001.16 1002.18 1003.32 1004.52 1005.75 1007.09 1008.13 1008.97 1010.01 1010.78 1011.82 1012.33 1013.11 1014.01 1014.78 1015.59 1016.21 1016.96 1017.62 1018.01 1018.35 1018.61 1018.82 1019.11 1019.32 1019.48 1019.71 1019.94 1020.03 1020.27 1020.29 1020.34 1020.46 1020.49 1020.40
1001.95 1002.13 1002.62 1003.05 1002.81 1002.11 1001.34 1001.11 1001.41 1002.60 1003.95 1005.26 1006.54 1007.72 1008.69 1009.58 1010.37 1011.41 1012.11 1012.83 1013.45 1014.24 1014.86 1015.57 1016.36 1017.08 1017.52 1018.07 1018.36 1018.73 1018.92 1019.10 1019.19 1019.34 1019.56 1019.74 1019.89 1020.11 1020.11 1020.18 1020.35 1020.27 1019.99
1001.86 1002.13 1002.48 1003.11 1002.82 1002.52 1002.36 1002.10 1002.82 1003.88 1005.14 1006.31 1007.29 1008.27 1009.14 1010.01 1010.75 1011.72 1012.59 1013.22 1014.00 1014.79 1015.50 1015.93 1016.54 1017.28 1018.11 1018.38 1018.57 1018.82 1018.98 1019.16 1019.19 1019.20 1019.30 1019.46 1019.57 1019.67 1019.82 1019.86 1019.81 1019.56 1019.48
1001.60 1002.16 1002.62 1003.28 1003.17 1003.20 1003.33 1003.47 1004.07 1005.22 1006.24 1007.30 1008.25 1008.98 1009.60 1010.34 1011.17 1012.24 1013.09 1013.83 1014.67 1015.33 1015.94 1016.38 1016.94 1017.30 1017.98 1018.59 1019.00 1019.09 1019.14 1019.32 1019.28 1019.18 1019.16 1019.21 1019.26 1019.22 1019.10 1018.90 1018.96 1018.97 1018.80
1002.15 1002.49 1002.91 1003.52 1003.78 1004.20 1004.46 1004.74 1005.32 1006.31 1007.15 1008.17 1008.99 1009.59 1010.10 1010.91 1011.94 1012.91 1013.67 1014.88 1015.34 1015.68 1016.18 1016.96 1017.52 1017.44 1018.15 1018.68 1019.25 1019.25 1019.39 1019.49 1019.40 1019.30 1019.08 1019.06 1018.98 1018.82 1018.66 1018.59 1018.50 1018.39 1018.07
1002.90 1002.91 1003.26 1003.89 1004.58 1005.34 1005.77 1006.17 1006.77 1007.52 1008.39 1009.19 1009.83 1010.39 1011.16 1012.17 1013.20 1013.73 1014.54 1015.39 1015.94 1015.99 1016.78 1017.47 1017.64 1017.94 1018.41 1018.58 1019.29 1019.36 1019.48 1019.54 1019.33 1019.11 1018.96 1018.87 1018.64 1018.47 1018.32 1018.23 1018.00 1017.86 1017.70
1002.96 1003.15 1003.77 1004.56 1005.29 1006.08 1006.87 1007.44 1008.13 1008.97 1009.75 1010.53 1011.00 1011.33 1012.01 1013.39 1014.48 1014.91 1015.28 1015.68 1016.07 1016.67 1017.12 1017.29 1017.96 1018.21 1018.07 1018.79 1019.23 1019.38 1019.44 1019.30 1019.15 1018.96 1018.76 1018.62 1018.39 1018.11 1017.80 1017.49 1017.37 1017.24 1016.98
1002.74 1003.48 1004.51 1005.51 1006.23 1007.09 1008.02 1008.74 1009.56 1010.46 1011.20 1011.79 1012.17 1012.75 1013.37 1013.97 1013.86 1015.27 1016.28 1015.95 1016.32 1016.86 1017.21 1017.75 1018.28 1018.16 1018.56 1019.01 1019.21 1019.31 1019.38 1019.31 1019.13 1018.90 1018.65 1018.36 1018.08 1017.72 1017.24 1016.97 1017.00 1016.66 1016.42
1004.24 1004.91 1005.83 1006.76 1007.46 1008.37 1009.04 1009.67 1010.63 1011.38 1012.26 1012.64 1013.21 1013.90 1014.83 1015.24 1015.19 1015.96 1015.99 1016.54 1016.94 1017.15 1017.57 1018.10 1018.37 1018.52 1018.82 1018.98 1019.12 1019.20 1019.27 1019.42 1019.26 1018.92 1018.61 1018.25 1017.75 1017.22 1016.86 1016.59 1016.32 1016.06 1015.85
1006.42 1006.90 1007.55 1008.16 1008.86 1009.46 1009.96 1010.88 1011.69 1012.32 1012.78 1013.29 1013.81 1014.25 1014.23 1015.85 1015.78 1016.24 1016.57 1016.69 1017.15 1017.53 1017.94 1018.40 1018.43 1018.57 1018.73 1018.88 1018.89 1018.94 1019.08 1019.20 1018.99 1018.65 1018.34 1017.88 1017.40 1016.88 1016.47 1016.08 1015.96 1015.76 1015.11
1007.83 1008.33 1008.86 1009.42 1009.99 1010.42 1010.70 1011.25 1011.96 1013.09 1013.46 1013.64 1014.27 1014.85 1015.21 1015.73 1016.63 1016.61 1016.78 1017.24 1017.70 1018.09 1018.36 1018.54 1018.67 1018.65 1018.73 1018.75 1018.76 1018.73 1018.73 1018.58 1018.51 1018.28 1017.82 1017.39 1016.92 1016.45 1016.12 1015.81 1015.66 1015.17 1014.56
1008.79 1008.82 1009.15 1009.89 1009.99 1010.76 1011.71 1011.43 1012.16 1013.22 1013.75 1014.18 1014.78 1015.25 1016.22 1017.07 1016.88 1017.11 1017.55 1017.95 1018.15 1018.34 1018.59 1018.82 1019.03 1019.09 1018.97 1018.89 1018.80 1018.74 1018.67 1018.59 1018.30 1018.00 1017.50 1017.02 1016.66 1016.40 1016.00 1015.66 1015.17 1014.90 1014.83
1009.33 1009.77 1010.30 1010.74 1011.33 1011.86 1012.36 1012.78 1013.30 1013.82 1014.30 1015.12 1015.97 1016.49 1016.69 1017.02 1017.25 1017.58 1017.94 1018.27 1018.50 1018.77 1019.02 1019.25 1019.43 1019.41 1019.35 1019.22 1019.02 1018.88 1018.73 1018.54 1018.13 1017.58 1017.14 1016.90 1016.65 1016.26 1015.94 1015.54 1015.19 1015.02 1014.73
1009.90 1010.52 1011.09 1011.64 1012.26 1012.68 1013.10 1013.53 1013.84 1014.26 1014.95 1015.66 1016.25 1016.71 1017.10 1017.54 1017.99 1018.34 1018.55 1018.81 1019.02 1019.13 1019.34 1019.56 1019.71 1019.61 1019.52 1019.31 1018.97 1018.83 1018.55 1018.15 1017.66 1017.03 1017.09 1017.04 1016.69 1016.40 1016.02 1015.60 1015.19 1014.83 1014.44
1010.79 1011.41 1011.99 1012.38 1012.96 1013.33 1013.75 1014.15 1014.47 1014.85 1015.49 1016.29 1016.85 1017.31 1017.77 1018.21 1018.51 1018.73 1018.97 1018.95 1019.08 1019.15 1019.25 1019.37 1019.47 1019.48 1019.42 1019.22 1018.99 1018.68 1018.14 1017.65 1017.34 1017.24 1017.32 1017.20 1016.96 1016.60 1016.15 1015.68 1015.11 1014.62 1014.17
Wind_Speed
12 9 9 9 8 9 8 11 11 10 6 4 9 9 8 7 8 6 8 11 10 9 7 5 7 6 6 6 5 3 4 4 4 2 4 1 3 2 2 3 1 1 4
12 14 11 10 10 9 9 9 9 13 12 7 5 5 5 3 5 5 7 8 9 8 7 6 6 7 6 6 6 3 2 2 4 2 0 3 4 3 3 2 3 1 1
16 15 14 12 10 13 12 9 9 9 13 10 5 7 7 4 4 5 5 5 7 7 7 6 6 7 5 5 5 3 3 3 2 4 3 3 2 3 3 2 1 2 0
15 15 16 13 11 11 13 10 8 9 9 10 9 15 11 10 4 5 6 7 7 6 6 7 7 6 5 6 4 4 3 3 4 2 3 3 3 1 5 3 3 4 2
10 10 10 10 9 7 7 14 11 8 9 13 12 10 9 7 8 8 11 10 5 6 8 8 8 9 6 6 7 4 5 3 3 2 2 1 0 3 3 5 4 5 4
6 6 7 6 6 8 7 4 10 9 9 11 11 14 14 14 11 10 10 8 6 5 6 8 7 7 8 7 5 5 5 5 4 2 2 2 2 0 0 2 3 5 5
3 6 5 7 7 9 9 7 8 8 9 10 10 14 13 15 16 15 11 13 9 7 8 7 7 7 8 7 6 6 5 4 3 3 1 1 0 1 1 1 4 4 3
2 5 7 7 9 10 10 9 8 7 8 11 11 10 13 10 10 12 11 9 9 8 9 8 8 9 7 7 6 4 4 5 3 3 1 0 1 1 1 2 1 6 3
6 6 8 9 10 9 9 10 9 8 9 11 10 11 13 14 12 13 12 9 10 9 10 10 8 8 7 6 7 4 4 4 3 2 1 2 2 1 2 1 2 3 6
5 4 6 9 12 10 8 9 9 9 10 11 9 13 13 12 13 13 13 14 13 12 12 9 8 7 7 6 5 4 4 3 1 2 1 1 1 2 2 2 2 2 3
3 2 5 7 12 10 6 8 8 8 11 9 15 13 10 13 13 12 12 13 14 13 11 11 8 7 6 6 5 5 4 3 0 1 1 3 2 3 3 2 3 3 3
5 1 3 6 10 10 6 7 8 12 12 14 15 14 14 14 13 13 13 13 13 11 10 10 9 7 6 5 5 3 3 2 0 2 2 3 2 4 4 3 5 3 4
7 4 3 6 8 8 5 6 11 12 16 15 15 13 14 13 14 14 13 13 13 11 11 10 8 7 6 5 5 3 2 1 2 2 3 4 3 4 3 4 4 3 6
5 6 4 4 7 3 2 9 14 14 15 14 14 14 14 14 14 14 13 13 11 10 8 9 9 7 5 5 4 2 1 3 3 3 3 4 5 5 4 4 6 6 5
1 7 4 3 3 3 6 13 13 13 14 14 13 14 15 14 15 14 13 12 10 8 9 9 8 6 5 4 4 4 5 5 5 5 5 4 5 12 12 6 4 5 5
5 8 5 3 3 7 9 11 11 11 13 14 14 14 16 16 15 13 13 11 9 9 8 7 6 6 5 7 3 3 3 5 5 5 5 5 8 9 13 15 18 15 10
6 3 6 5 10 9 9 10 10 10 12 14 14 15 15 14 13 13 12 10 7 8 7 6 5 6 6 7 2 5 3 5 6 6 5 5 4 9 6 10 17 14 19
8 2 7 11 11 11 11 12 12 12 13 13 14 15 17 14 11 9 10 8 6 7 6 6 5 4 4 5 2 6 4 5 6 6 6 5 6 6 9 7 4 6 6
5 10 12 12 12 13 13 14 14 13 13 13 13 13 13 13 12 9 8 6 8 6 6 5 3 4 5 4 1 5 4 5 6 6 6 6 6 12 18 8 7 9 8
14 14 15 14 14 14 14 15 13 14 13 12 13 10 9 9 9 7 7 5 6 6 4 4 2 5 1 3 3 5 2 5 4 5 6 14 14 19 19 13 11 10 10
14 14 13 13 13 13 15 14 12 12 12 12 11 8 9 7 8 7 6 6 5 5 4 2 2 2 4 2 5 7 2 3 4 4 4 4 17 20 23 23 9 11 15
13 13 12 11 11 11 13 14 13 9 10 11 11 10 9 8 6 7 6 6 5 4 2 2 2 2 1 4 5 8 9 11 4 5 4 6 19 23 23 18 20 21 18
11 9 10 11 9 10 10 15 12 10 11 13 12 11 9 6 6 6 6 4 4 3 2 2 1 2 3 4 9 11 13 14 10 6 14 21 22 23 15 16 19 17 6
9 10 12 13 12 10 10 11 12 11 13 13 11 7 7 7 6 4 4 4 4 3 3 4 4 4 4 4 4 4 5 10 9 13 7 13 18 16 13 11 8 4 6
8 10 11 12 12 12 12 10 11 11 11 9 7 6 5 6 5 5 4 4 4 4 2 2 2 3 4 4 11 11 7 6 10 14 4 6 5 6 6 6 7 7 7
10 11 11 12 12 12 11 10 9 10 10 9 5 5 5 4 4 3 3 4 4 2 1 2 2 2 8 13 15 16 18 19 19 6 4 4 5 6 7 8 8 8 11
Wind_Direction
249 244 238 249 243 231 228 200 177 178 171 187 191 184 189 155 158 147 145 133 140 136 144 144 135 134 137 147 129 116 111 33 351 17 347 288 160 183 221 195 208 236 185
242 245 241 219 230 237 246 230 196 181 186 191 191 183 119 100 113 113 112 115 122 123 141 145 138 127 125 113 116 138 117 96 32 75 326 354 338 331 238 174 149 243 131
241 245 249 236 219 219 234 244 215 188 187 182 155 94 88 65 71 89 86 104 116 127 133 130 120 119 112 119 114 120 113 131 35 67 130 28 293 324 327 240 94 344 339
241 246 251 262 238 221 214 228 224 201 183 171 157 160 164 157 162 121 115 109 124 127 134 134 126 121 117 111 122 117 117 107 131 67 58 93 136 105 329 338 337 322 330
214 229 229 226 243 262 227 209 215 211 183 183 160 162 142 115 127 121 120 127 128 144 139 133 128 126 118 110 118 129 100 91 118 113 84 30 223 208 181 279 301 338 335
41 355 331 302 240 245 238 234 212 192 174 174 153 150 149 137 140 145 148 143 134 152 139 134 135 127 125 122 127 120 109 104 95 91 100 151 153 295 342 299 309 281 288
42 314 335 317 285 234 235 215 215 200 164 152 137 149 157 146 150 155 154 150 152 162 155 139 127 121 120 131 128 127 125 115 102 109 111 52 49 162 218 267 284 283 303
61 18 325 304 282 251 205 202 194 183 161 142 147 155 133 145 148 155 155 148 153 152 139 131 123 124 124 126 126 124 126 121 126 134 122 87 313 324 205 214 267 305 267
82 15 340 312 292 270 209 187 181 176 162 148 153 142 141 146 151 141 144 142 140 146 134 126 126 131 127 135 138 138 138 130 150 155 166 205 252 297 288 277 215 214 296
72 31 333 305 305 282 222 180 168 171 153 151 134 133 135 133 138 141 144 145 142 143 130 121 124 121 123 125 119 118 118 111 100 149 119 309 296 311 310 282 273 259 249
320 1 311 308 304 290 240 171 155 149 145 133 127 116 120 127 132 133 139 143 131 129 125 128 124 126 132 131 123 114 120 138 185 339 252 277 288 277 278 291 283 271 261
198 242 323 311 300 292 275 158 151 147 120 110 110 117 115 125 124 130 133 124 126 122 124 126 125 123 124 119 116 121 123 149 281 297 312 291 307 310 294 288 282 273 280
202 150 47 315 293 304 285 139 129 117 114 112 113 118 126 126 133 126 122 126 124 123 124 123 122 120 117 115 96 82 43 353 292 273 267 273 284 286 283 287 298 303 297
232 141 105 300 289 315 341 86 89 104 108 113 118 129 129 128 128 123 127 124 119 125 113 111 110 105 98 93 90 68 352 313 302 297 279 271 262 262 268 272 266 271 277
214 129 122 238 299 23 88 96 97 100 111 118 125 131 127 124 119 117 116 109 107 103 108 108 102 117 123 90 47 21 6 338 325 313 294 285 290 298 294 291 261 267 271
290 122 133 192 92 88 90 92 92 100 114 119 126 124 121 116 113 113 104 104 121 115 109 108 123 103 96 93 47 13 346 319 311 303 299 298 294 294 312 310 306 302 300
323 122 153 139 97 91 97 87 91 100 114 120 120 114 108 104 105 107 116 121 117 99 110 122 109 109 120 100 28 340 335 306 290 281 283 283 286 307 279 284 293 296 296
250 207 124 108 107 104 102 100 98 103 108 106 104 102 99 99 100 111 114 124 130 125 121 102 111 128 113 129 36 336 319 302 294 290 285 280 289 280 297 277 260 272 268
200 111 102 104 105 105 106 103 99 98 94 93 90 91 106 120 122 140 148 112 108 104 95 104 118 77 74 141 11 349 326 312 311 310 329 324 305 302 307 321 299 296 292
83 98 102 109 105 109 112 106 107 109 111 112 109 109 124 137 130 124 100 96 93 97 101 97 86 123 199 278 354 338 333 320 315 325 315 308 316 315 318 311 306 304 306
81 87 92 98 107 109 106 101 106 111 111 109 117 127 93 100 100 98 101 98 99 103 97 123 253 188 178 229 306 320 337 283 279 274 282 281 313 313 312 314 320 303 302
86 99 107 109 110 112 117 114 110 118 132 125 108 108 105 93 99 98 84 86 87 95 103 68 6 2 36 347 321 311 309 313 321 296 288 284 308 319 318 319 313 309 320
129 127 126 126 123 122 125 122 128 117 110 102 93 87 98 124 102 96 97 93 85 77 53 40 28 343 354 345 348 353 333 330 320 312 310 321 320 319 316 314 320 329 321
107 103 98 97 95 94 95 99 109 112 108 110 115 118 108 94 85 81 74 77 64 49 40 30 17 352 347 348 349 330 315 310 310 298 299 322 320 317 326 326 318 314 309
89 97 100 99 100 105 104 108 113 113 107 101 97 96 90 93 85 76 83 75 71 88 60 23 1 342 330 305 323 329 319 306 301 324 338 320 316 328 321 319 313 312 309
96 99 102 106 108 109 108 107 107 108 111 107 100 98 92 87 89 86 62 54 103 94 72 332 327 307 320 325 327 324 319 320 331 332 322 313 318 317 318 315 312 310 309